Location: Clatteringshaws Loch
(55.0508°N, 4.2860°W)
Time: 00:16:58
(UTC+00:00)

Daily predictions for brighter satellites

Satellite Brightness Start Highest point End
(mag) Time Altitude Azimuth Time Altitude Azimuth Time Altitude Azimuth
ATLAS 3B R/B 4.2 03:06:38 33° NE 03:06:38 33° NE 03:10:15 10° NE
Cosmos 2219 Rocket 4.4 03:17:53 20° ENE 03:17:53 20° ENE 03:20:28 10° NE
Cosmos 2333 Rocket 4.5 03:20:00 19° E 03:20:00 19° E 03:23:07 10° NE
ATLAS 5 CENTAUR R/B 4.5 03:23:55 18° NE 03:23:55 18° NE 03:25:17 10° NE
COSMOS 2428 4.3 03:52:13 31° NE 03:52:13 31° NE 03:55:13 10° NE
Cosmos 1943 Rocket 4.3 03:55:14 18° NNE 03:55:14 18° NNE 03:58:44 10° ENE
ADEOS Rocket 4.4 03:49:20 10° NNE 03:52:08 30° NNE 03:52:08 30° NNE
Cosmos 2322 Rocket 4.2 04:00:00 20° NNE 04:00:00 20° NNE 04:01:49 10° NNE
CZ-4C R/B 3.5 03:59:04 38° NE 03:59:04 38° NE 04:03:18 10° NE
Cosmos 2360 Rocket 3.9 04:04:08 25° NNE 04:04:08 25° NNE 04:06:27 10° NNE
Cosmos 1980 Rocket 4.4 04:05:03 16° NNE 04:05:03 16° NNE 04:06:36 10° NNE
Lacrosse 4 Rocket 4.4 04:10:26 12° NE 04:10:26 12° NE 04:11:03 10° NE
Cosmos 2237 Rocket 3.3 04:18:25 39° SE 04:19:00 40° ESE 04:24:13 10° NE
CZ-4B R/B 4.3 04:15:35 10° NNE 04:19:08 39° NNE 04:19:08 39° NNE
SL-16 R/B 4.0 04:24:26 21° N 04:24:26 21° N 04:26:45 10° NNE
USA 238 DEB 3.8 04:30:47 65° N 04:30:47 65° N 04:37:15 10° NE
USA 238 3.8 04:30:52 65° N 04:30:52 65° N 04:37:22 10° NE
CENTAUR R/B 3.9 04:35:32 17° S 04:39:41 36° ESE 04:45:59 10° NE
Cosmos 2369 Rocket 3.5 04:39:43 30° N 04:41:20 35° NE 04:46:34 10° ESE
NOSS 0 Rocket 4.1 04:48:22 50° S 04:49:58 69° ESE 04:56:11 10° NE
COSMO-SKYMED 1 3.6 04:46:07 10° SE 04:49:21 43° ESE 04:49:21 43° ESE
Cosmos 921 Rocket 4.0 04:51:41 45° ESE 04:51:41 45° ESE 04:55:04 10° SE
Cosmos 1980 3.9 04:51:30 59° SSE 04:52:23 69° ESE 04:58:04 10° NE
ATLAS 3B R/B 3.1 04:53:53 48° NNW 04:54:24 49° NNW 05:01:15 10° NE
ADEOS II 2.2 04:50:58 10° NNE 04:55:32 67° NNE 04:55:32 67° NNE
Cosmos 2181 Rocket 3.9 04:57:38 71° WNW 04:58:05 74° W 05:04:28 10° S
Lacrosse 5 rocket 2.4 05:00:13 43° ESE 05:00:13 43° ESE 05:03:33 10° ENE
Cosmos 2219 Rocket 2.1 04:59:38 81° NNW 04:59:38 81° NNW 05:05:10 10° NNE
NOSS 3-2 (C) 3.4 05:00:06 68° WSW 05:01:01 85° NW 05:08:04 10° NE
Cosmos 2333 Rocket 2.1 05:02:03 72° SSW 05:02:40 86° ESE 05:08:23 10° NE
ATLAS 5 CENTAUR R/B 2.8 05:05:28 41° N 05:05:28 41° N 05:10:24 10° NE
Cosmos 1315 Rocket 3.5 05:10:39 49° SE 05:11:07 52° E 05:15:03 10° NNE
Cosmos 1709 Rocket 3.8 05:08:31 10° SSW 05:14:42 78° WNW 05:20:59 10° N
Cosmos 2333 4.5 05:20:54 48° NNW 05:20:54 48° NNW 05:26:00 10° NNE
Cosmos 1238 Rocket 3.4 05:22:48 57° SSW 05:22:48 57° SSW 05:26:58 10° S
Blok-2BL 4.4 05:23:41 56° N 05:23:41 56° N 05:27:57 10° NE
Okean 1 3.4 05:25:23 70° SSE 05:25:23 70° SSE 05:29:01 10° SSE
COSMOS 2455 3.7 05:25:23 32° NNW 05:25:43 32° NNW 05:31:06 10° NE
NOSS 3-2 (A) 3.6 05:27:13 48° W 05:28:53 63° NNW 05:35:58 10° NE
RUBIN 8/PSLV 4.4 05:26:03 10° NNE 05:30:22 82° WNW 05:30:46 72° SW
SL-16 R/B 2.7 05:25:09 10° SSW 05:30:43 60° ESE 05:36:19 10° NE
Cosmos 2056 Rocket 3.4 05:30:12 40° NNW 05:32:08 87° ENE 05:37:17 10° SSE
COSMOS 2428 3.3 05:34:16 39° NW 05:34:16 39° NW 05:39:33 10° NNE
Cosmos 2151 Rocket 3.8 05:31:36 10° S 05:36:06 71° E 05:40:35 10° NNE
Okean 2 Rocket 3.6 05:38:17 43° NNW 05:38:17 43° NNW 05:41:27 10° N
SKYMED 2 3.7 05:34:09 10° S 05:37:59 56° SW 05:37:59 56° SW
Cosmos 1943 Rocket 3.2 05:36:46 20° NNW 05:40:14 41° NE 05:45:26 10° ESE
ADEOS Rocket 3.8 05:35:25 10° N 05:39:05 29° NNW 05:39:05 29° NNW
USA 32 3.9 05:36:43 17° NNW 05:40:46 66° W 05:45:57 10° S
Cosmos 2322 Rocket 3.8 05:41:48 19° NNW 05:42:05 19° NNW 05:46:03 10° NNE
Cosmos 1538 Rocket 4.0 05:43:29 48° W 05:44:21 54° NW 05:49:29 10° NNE
Okean-O 3.1 05:41:22 10° N 05:44:46 42° NNW 05:44:46 42° NNW
Cosmos 2360 Rocket 3.4 05:45:55 24° NNW 05:45:55 24° NNW 05:50:23 10° NNE
CZ-4C R/B 3.2 05:44:16 32° NW 05:46:23 41° N 05:52:55 10° ENE
Cosmos 1624 Rocket 3.9 05:44:21 37° NW 05:46:27 72° WSW 05:51:44 10° SSE
CZ-4 R/B 3.8 05:43:28 10° NE 05:46:45 24° E 05:49:59 10° SSE
Cosmos 773 Rocket 3.8 05:44:36 27° SW 05:47:26 70° WNW 05:52:35 10° NNE
Cosmos 1346 Rocket 2.6 05:47:53 64° WSW 05:47:53 64° WSW 05:51:35 10° S
Feng Yun 1-1 Rocket 4.2 05:42:08 10° NNE 05:47:49 63° WNW 05:53:17 10° SW
Cosmos 304 Rocket 4.0 05:47:58 46° NW 05:48:01 46° NW 05:52:42 10° NNE
Cosmos 1980 Rocket 4.0 05:46:49 15° NNW 05:48:09 16° N 05:51:31 10° NE
Lacrosse 4 Rocket 2.9 05:46:48 22° N 05:48:31 29° NNE 05:52:12 10° E
Cosmos 1371 Rocket 4.0 05:48:24 39° NW 05:50:07 58° WSW 05:55:18 10° S
DMSP B5D1-3 4.5 05:45:51 10° S 05:50:56 61° WSW 05:54:02 24° NNW
Cosmos 923 Rocket 3.9 05:45:50 10° SSW 05:51:11 85° WNW 05:56:31 10° NNE
Nadezhda 3 Rocket 4.1 05:46:48 10° N 05:53:12 85° E 05:59:35 10° SSE
Ariane Rocket 3.4 05:48:18 10° NNE 05:53:22 65° ESE 05:58:23 10° S
Cosmos 2084 Rocket 4.3 05:53:52 29° N 05:53:52 29° N 05:57:01 10° NE
Meteor 1-31 Rocket 4.4 05:52:14 10° N 05:53:46 22° N 05:53:46 22° N
USA 215 3.6 05:49:36 10° ENE 05:56:06 62° SSE 06:02:33 10° SW
Cosmos 1536 Rocket 3.8 05:56:08 46° WNW 05:56:31 47° W 06:00:46 10° SSW
CZ-4B R/B 4.3 05:55:22 10° N 05:59:38 48° WNW 06:02:44 18° SW
Meteor 2-4 Rocket 3.9 05:55:11 10° N 06:00:37 70° ENE 06:06:09 10° SSE
CZ-4B R/B 4.1 05:56:40 10° N 06:01:01 28° NW 06:01:01 28° NW
Cosmos 2237 Rocket 2.3 06:00:19 29° WSW 06:02:59 52° NW 06:08:31 10° NNE
SL-16 R/B 3.9 06:06:18 16° NNW 06:07:35 17° N 06:11:15 10° NNE
Iridium 2 3.7 06:03:52 10° SSW 06:07:36 52° W 06:11:20 10° N
Cosmos 2327 Rocket 4.4 06:06:47 10° SSW 06:13:08 69° WNW 06:19:28 10° N
Cosmos 1536 4.0 06:12:18 10° SSE 06:16:07 45° E 06:19:59 10° NNE
Helios 1B rocket 2.5 06:14:02 10° SSE 06:18:11 79° ENE 06:22:22 10° NNW
Okean 1-7 Rocket 3.5 06:14:05 12° NNW 06:18:13 70° W 06:22:34 10° S
CSL-04 Rocket 3.8 06:13:07 10° NNE 06:18:45 82° ESE 06:24:18 10° SSW
Cosmos 1025 Rocket 3.1 06:14:37 10° N 06:19:04 84° ENE 06:23:28 10° SSE
Cosmos 1680 Rocket 3.4 06:15:07 10° SW 06:20:19 68° WNW 06:25:33 10° NNE
Cosmos 1400 Rocket 4.5 06:22:03 19° NNW 06:22:03 19° NNW 06:23:48 10° N
Cosmos 1452 Rocket 3.5 06:17:29 16° NNW 06:21:50 84° WSW 06:27:07 10° SSE
Meteor 1-29 3.3 06:18:36 10° SSE 06:21:57 64° ENE 06:25:10 11° N
Cosmos 2074 Rocket 4.0 06:15:47 10° SSW 06:21:59 59° WNW 06:28:11 10° N
USA 238 DEB 4.3 06:18:14 23° WNW 06:22:13 43° N 06:28:56 10° ENE
Okean 1 Rocket 3.2 06:17:49 10° S 06:22:14 79° E 06:26:38 10° NNE
USA 238 4.3 06:18:20 23° WNW 06:22:19 43° N 06:29:01 10° ENE
Cosmos 2369 Rocket 2.2 06:21:31 18° NW 06:25:49 69° WSW 06:31:29 10° SSE
NOAA 6 4.2 06:21:50 10° N 06:26:45 47° WNW 06:31:37 10° SW
COSMO-SKYMED 1 3.7 06:23:18 10° SW 06:26:33 24° W 06:26:33 24° W
Meteor 1-28 Rocket 3.9 06:24:21 10° SSW 06:27:49 33° W 06:28:53 28° WNW
Cosmos 1603 4.2 06:22:21 10° SSW 06:27:58 64° ESE 06:33:35 10° NE
Cosmos 921 Rocket 4.3 06:28:32 23° W 06:28:34 23° W 06:32:04 10° SSW
CENTAUR R/B 2.6 06:23:24 10° WSW 06:29:51 78° NW 06:37:16 10° NE
GRACE-2 4.0 06:30:23 10° N 06:33:12 73° E 06:35:58 10° S
GRACE-1 4.0 06:30:49 10° N 06:33:37 75° E 06:36:24 10° S
Cosmos 2184 Rocket 4.1 06:28:22 10° SSW 06:34:21 51° WNW 06:40:26 10° N
Meteor 1-20 Rocket 4.3 06:29:08 10° SW 06:34:32 51° WNW 06:39:55 10° N
ADEOS II 3.2 06:31:29 10° N 06:35:24 22° NW 06:36:28 20° WNW
Aureole 2 Rocket 4.2 06:37:09 13° N 06:37:09 13° N 06:37:46 10° N
Cosmos 292 Rocket 3.8 06:31:51 10° SW 06:36:37 58° WNW 06:41:24 10° NNE
NOSS 0 Rocket 4.4 06:32:26 17° W 06:36:53 39° NW 06:42:44 10° NNE
Cosmos 1980 4.3 06:33:25 18° W 06:36:56 35° NW 06:42:10 10° NNE
Aureole 1 Rocket 4.1 06:39:02 16° NNW 06:39:02 16° NNW 06:40:41 10° N
Lacrosse 5 rocket 1.4 06:35:57 22° W 06:38:37 74° N 06:43:01 10° ENE
Cosmos 2112 Rocket 4.0 06:33:41 10° SW 06:38:49 58° WNW 06:43:58 10° NNE
SL-24 DEB 4.4 06:34:24 10° SSW 06:39:04 53° W 06:43:48 10° NNW
Cosmos 1892 Rocket 3.6 06:38:47 10° N 06:43:16 86° ENE 06:47:44 10° SSE
Cosmos 1633 2.5 06:39:55 10° SSW 06:43:34 68° WNW 06:47:13 10° N
Cosmos 1340 2.7 06:39:56 10° NNW 06:43:45 84° ENE 06:47:33 10° SSE
Cosmos 2219 Rocket 3.2 06:41:24 19° WNW 06:44:14 27° NNW 06:49:04 10° NNE
ATLAS 3B R/B 3.4 06:41:08 17° WNW 06:46:32 43° N 06:53:04 10° E
Cosmos 2333 Rocket 3.0 06:44:07 17° W 06:47:37 30° NW 06:52:36 10° NNE
Cosmos 1315 Rocket 4.0 06:46:34 18° W 06:48:02 22° WNW 06:51:12 10° N
Cosmos 2154 Rocket 3.9 06:43:08 10° SSW 06:49:19 68° WNW 06:55:32 10° N
ATLAS 5 CENTAUR R/B 3.1 06:47:01 16° NW 06:50:52 37° N 06:56:22 10° ENE
NOSS 3-2 (C) 4.1 06:47:34 16° W 06:52:44 46° NNW 06:59:44 10° ENE
Cosmos 1943 4.1 06:51:07 10° S 06:56:33 52° ESE 07:02:03 10° NE
CZ-2C R/B 2.7 06:51:35 10° NNE 06:56:50 80° ESE 07:02:00 10° SSW
Cosmos 1300 Rocket 3.9 06:52:42 10° SW 06:56:57 44° WNW 07:01:12 10° N
Meteor 1-11 Rocket 3.7 06:51:15 10° SSW 06:57:05 71° WNW 07:02:50 10° NNE
Cosmos 1626 Rocket 4.4 06:56:01 10° N 07:00:25 53° ENE 07:04:46 10° SSE
Okean 2 3.5 06:58:27 10° NNW 07:02:36 59° W 07:06:42 10° S
SPOT 3 Rocket 3.7 06:57:46 10° NNE 07:02:58 80° ESE 07:08:08 10° SSW
PAYLOAD A 4.1 07:03:09 10° NNE 07:08:22 66° WNW 07:13:42 10° SSW
COSMOS 2455 4.1 07:08:32 11° NW 07:13:22 27° N 07:18:27 10° ENE
SL-16 R/B 2.7 07:09:51 10° WSW 07:15:09 39° NW 07:20:29 10° NNE
Cosmos 1867 4.3 07:11:10 10° NW 07:16:27 46° NNE 07:21:42 10° ESE
SJ-12 4.0 07:12:58 10° N 07:17:04 58° WNW 07:21:10 10° SSW
IDEFIX/ARIANE 42P 2.5 07:12:35 10° NNE 07:17:48 78° WNW 07:22:59 10° SSW
Cosmos 1455 Rocket 3.5 07:14:47 10° S 07:19:05 68° E 07:23:25 10° NNE
COSMOS 2428 4.2 07:16:18 11° WNW 07:20:06 19° NNW 07:24:04 10° NNE
Cosmos 1420 Rocket 4.3 07:15:03 10° NW 07:20:11 51° WSW 07:25:14 10° S
NOSS 3-2 (A) 4.3 07:14:38 10° WNW 07:20:54 43° N 07:27:56 10° ENE
CZ-4 R/B 1.6 07:18:10 10° N 07:22:03 46° WNW 07:25:50 10° SW
Cosmos 1515 3.7 07:18:38 10° NNW 07:22:31 83° W 07:26:23 10° S
AQUARIUS 4.2 07:19:04 10° N 07:23:33 63° WNW 07:27:59 10° SSW
Cosmos 1943 Rocket 2.4 07:18:49 10° NW 07:24:11 53° WSW 07:29:30 10° S
IRS-1A Rocket 4.4 07:18:44 10° N 07:24:12 53° WNW 07:29:44 10° SW
Cosmos 1066 Rocket 4.3 07:19:38 10° NNW 07:25:02 80° ENE 07:30:27 10° SSE
SMAP 3.1 07:21:24 10° N 07:26:01 63° WNW 07:30:37 10° SSW
Lacrosse 4 Rocket 1.5 07:23:24 10° NW 07:27:37 68° SW 07:31:42 10° SSE
Cosmos 2322 Rocket 4.0 07:24:45 10° NNW 07:28:26 17° N 07:32:07 10° NE
DNEPR-1 R/B 4.3 07:21:54 10° SW 07:28:38 73° NW 07:34:06 10° NE
SL-8 Rocket 4.0 07:23:00 10° SSW 07:29:15 71° WNW 07:35:30 10° N
Cosmos 2360 Rocket 4.0 07:28:32 10° NW 07:31:56 16° N 07:35:19 10° NE
Ariane Rocket 3.9 07:27:46 10° N 07:32:01 27° NW 07:36:13 10° WSW
Lacrosse 5 3.4 07:27:52 10° SSW 07:32:40 42° SE 07:37:27 10° ENE
Cosmos 2084 Rocket 4.5 07:30:43 10° NW 07:34:02 27° N 07:37:20 10° ENE
SeaSat 1 4.5 07:31:09 10° ENE 07:34:05 16° NNE 07:37:03 10° NNW
Cosmos 1980 Rocket 3.8 07:30:02 10° NNW 07:34:21 22° NNE 07:38:38 10° ENE
SJ-6B 4.4 07:30:56 10° NNE 07:34:31 38° E 07:38:10 10° SSE
Cosmos 44 4.5 07:30:23 10° SSW 07:35:32 52° SE 07:40:31 10° NE
CZ-4C R/B 3.2 07:29:51 10° NW 07:36:10 52° NNE 07:43:22 10° E
Cosmos 2366 rocket 4.1 07:32:26 10° SSW 07:38:45 80° WNW 07:45:10 10° N
USA 215 3.3 07:32:47 10° ENE 07:39:20 82° N 07:45:54 10° W
Cosmos 2218 Rocket 4.1 07:33:17 10° SSW 07:39:41 72° WNW 07:46:07 10° N
YAOGAN 1 2.8 07:35:40 10° N 07:39:51 48° WNW 07:44:01 10° SW
